| time (UTC) | temp C | wind direction | speed KPH | gust KPH | rain 1hr cm | rain 24hr cm | rain mn cm | humidity % | barometer mb |
| 20260901190037 | 29 | 260 | 1.6 | 12.9 | 0.00 | 0.13 | 0.05 | 77 | 1013.6 |
| 20260901184544 | 30 | 256 | 0.0 | 8.0 | 0.00 | 0.13 | 0.05 | 76 | 1013.8 |
| 20260901183038 | 30 | 193 | 1.6 | 8.0 | 0.00 | 0.13 | 0.05 | 76 | 1014.0 |
| 20260901181536 | 30 | 252 | 1.6 | 6.4 | 0.00 | 0.13 | 0.05 | 76 | 1014.1 |
| 20260901180037 | 30 | 237 | 0.0 | 11.3 | 0.00 | 0.13 | 0.05 | 75 | 1014.1 |
| 20260901174533 | 30 | 210 | 4.8 | 11.3 | 0.00 | 0.13 | 0.05 | 74 | 1014.0 |
| 20260901173031 | 29 | 204 | 4.8 | 9.7 | 0.00 | 0.13 | 0.05 | 74 | 1013.9 |
| 20260901171526 | 29 | 235 | 4.8 | 19.3 | 0.00 | 0.13 | 0.05 | 77 | 1014.1 |
| 20260901170023 | 28 | 264 | 1.6 | 6.4 | 0.00 | 0.13 | 0.05 | 82 | 1014.4 |
| 20260901164520 | 27 | 252 | 0.0 | 6.4 | 0.00 | 0.13 | 0.05 | 84 | 1014.6 |
| 20260901163018 | 27 | 189 | 0.0 | 3.2 | 0.00 | 0.13 | 0.05 | 85 | 1014.8 |
| 20260901161513 | 26 | 161 | 0.0 | 0.0 | 0.00 | 0.13 | 0.05 | 88 | 1015.0 |
| 20260901160014 | 26 | 191 | 0.0 | 3.2 | 0.00 | 0.13 | 0.05 | 92 | 1015.3 |
| 20260901154511 | 25 | 219 | 0.0 | 3.2 | 0.00 | 0.13 | 0.05 | 91 | 1015.4 |
| 20260901153010 | 25 | 238 | 0.0 | 1.6 | 0.00 | 0.13 | 0.05 | 92 | 1015.5 |
| 20260901151510 | 25 | 345 | 0.0 | 4.8 | 0.00 | 0.13 | 0.05 | 91 | 1015.5 |
| 20260901150012 | 26 | 211 | 0.0 | 0.0 | 0.00 | 0.13 | 0.05 | 89 | 1015.5 |
| 20260901144508 | 26 | 211 | 0.0 | 0.0 | 0.00 | 0.13 | 0.05 | 87 | 1015.2 |
| 20260901143007 | 26 | 211 | 0.0 | 3.2 | 0.03 | 0.13 | 0.05 | 86 | 1015.2 |
| 20260901141504 | 25 | 175 | 0.0 | 0.0 | 0.03 | 0.13 | 0.05 | 90 | 1015.3 |
| 20260901134619 | 23 | 220 | 0.0 | 3.2 | 0.03 | 0.13 | 0.05 | 95 | 1015.4 |
| 20260901133059 | 22 | 241 | 0.0 | 0.0 | 0.00 | 0.10 | 0.03 | 96 | 1015.6 |
| 20260901131557 | 22 | 263 | 0.0 | 3.2 | 0.00 | 0.10 | 0.03 | 96 | 1015.6 |
| 20260901130051 | 22 | 256 | 0.0 | 1.6 | 0.00 | 0.10 | 0.03 | 97 | 1015.7 |
| 20260901124555 | 22 | 242 | 0.0 | 1.6 | 0.00 | 0.10 | 0.03 | 97 | 1015.8 |
| 20260901123050 | 22 | 17 | 0.0 | 3.2 | 0.00 | 0.10 | 0.03 | 98 | 1015.6 |
| 20260901121548 | 22 | 236 | 0.0 | 4.8 | 0.00 | 0.10 | 0.03 | 98 | 1015.5 |
| 20260901120044 | 21 | 218 | 0.0 | 3.2 | 0.00 | 0.10 | 0.03 | 99 | 1015.4 |
| 20260901114556 | 21 | 279 | 0.0 | 0.0 | 0.00 | 0.10 | 0.03 | 98 | 1015.5 |
| 20260901113041 | 20 | 279 | 0.0 | 0.0 | 0.00 | 0.10 | 0.03 | 98 | 1015.8 |
| 20260901111541 | 20 | 279 | 0.0 | 0.0 | 0.00 | 0.10 | 0.03 | 98 | 1015.9 |
| 20260901110041 | 20 | 279 | 0.0 | 0.0 | 0.00 | 0.10 | 0.03 | 98 | 1015.7 |
| 20260901104539 | 20 | 279 | 0.0 | 0.0 | 0.00 | 0.10 | 0.03 | 98 | 1015.8 |
| 20260901103038 | 20 | 279 | 0.0 | 0.0 | 0.00 | 0.10 | 0.03 | 98 | 1015.6 |
| 20260901101538 | 20 | 279 | 0.0 | 0.0 | 0.00 | 0.10 | 0.03 | 98 | 1015.7 |
| 20260901100042 | 20 | 279 | 0.0 | 0.0 | 0.00 | 0.10 | 0.03 | 98 | 1015.8 |
| 20260901094536 | 20 | 290 | 0.0 | 0.0 | 0.00 | 0.10 | 0.03 | 98 | 1015.7 |
| 20260901093036 | 20 | 290 | 0.0 | 0.0 | 0.00 | 0.10 | 0.03 | 98 | 1015.7 |
| 20260901091539 | 20 | 290 | 0.0 | 0.0 | 0.00 | 0.10 | 0.03 | 97 | 1015.8 |
| 20260901090033 | 20 | 290 | 0.0 | 0.0 | 0.00 | 0.10 | 0.03 | 98 | 1015.7 |
| 20260901084532 | 20 | 290 | 0.0 | 0.0 | 0.00 | 0.10 | 0.03 | 97 | 1015.9 |
| 20260901083032 | 20 | 290 | 0.0 | 0.0 | 0.00 | 0.10 | 0.03 | 97 | 1016.1 |
| 20260901081537 | 20 | 290 | 0.0 | 0.0 | 0.00 | 0.10 | 0.03 | 97 | 1016.3 |
| 20260901080031 | 20 | 290 | 0.0 | 0.0 | 0.00 | 0.10 | 0.03 | 97 | 1016.2 |
| 20260901074532 | 20 | 290 | 0.0 | 0.0 | 0.00 | 0.10 | 0.03 | 97 | 1016.0 |
| 20260901073030 | 20 | 290 | 0.0 | 0.0 | 0.00 | 0.10 | 0.03 | 97 | 1016.0 |
| 20260901071529 | 20 | 290 | 0.0 | 0.0 | 0.00 | 0.10 | 0.03 | 97 | 1016.0 |
| 20260901070034 | 20 | 290 | 0.0 | 0.0 | 0.00 | 0.10 | 0.03 | 97 | 1016.0 |
| 20260901064530 | 20 | 290 | 0.0 | 1.6 | 0.00 | 0.10 | 0.03 | 96 | 1016.2 |
| 20260901063031 | 21 | 294 | 0.0 | 1.6 | 0.00 | 0.10 | 0.03 | 96 | 1016.5 |
| 20260901061524 | 21 | 315 | 0.0 | 0.0 | 0.00 | 0.10 | 0.03 | 96 | 1016.4 |
| 20260901060022 | 21 | 315 | 0.0 | 0.0 | 0.00 | 0.10 | 0.03 | 96 | 1016.6 |
| 20260901054531 | 21 | 315 | 0.0 | 0.0 | 0.00 | 0.10 | 0.03 | 96 | 1016.8 |
| 20260901053020 | 21 | 238 | 0.0 | 3.2 | 0.00 | 0.10 | 0.03 | 96 | 1016.8 |
| 20260901051519 | 21 | 178 | 0.0 | 6.4 | 0.00 | 0.10 | 0.03 | 96 | 1016.8 |
| 20260901050018 | 21 | 219 | 0.0 | 6.4 | 0.03 | 0.10 | 0.03 | 97 | 1016.9 |
| 20260901044516 | 21 | 228 | 1.6 | 11.3 | 0.03 | 0.10 | 0.03 | 97 | 1016.9 |
| 20260901043014 | 20 | 219 | 0.0 | 6.4 | 0.05 | 0.10 | 0.03 | 98 | 1017.1 |
| 20260901041511 | 20 | 192 | 0.0 | 4.8 | 0.05 | 0.10 | 0.03 | 97 | 1017.2 |
| 20260901040009 | 20 | 215 | 0.0 | 0.0 | 0.03 | 0.08 | 0.00 | 97 | 1017.4 |
| 20260901034518 | 20 | 215 | 0.0 | 0.0 | 0.03 | 0.08 | 0.08 | 97 | 1017.8 |
| 20260901033012 | 20 | 215 | 0.0 | 0.0 | 0.00 | 0.05 | 0.05 | 97 | 1017.9 |
| 20260901031517 | 20 | 215 | 0.0 | 0.0 | 0.00 | 0.05 | 0.05 | 97 | 1017.7 |
| 20260901030007 | 20 | 215 | 0.0 | 0.0 | 0.00 | 0.05 | 0.05 | 97 | 1017.8 |
| 20260901024506 | 20 | 215 | 0.0 | 0.0 | 0.00 | 0.05 | 0.05 | 97 | 1017.8 |
| 20260901023007 | 20 | 215 | 0.0 | 0.0 | 0.00 | 0.05 | 0.05 | 97 | 1017.8 |
| 20260901021505 | 20 | 215 | 0.0 | 0.0 | 0.00 | 0.05 | 0.05 | 97 | 1017.8 |
| 20260901020004 | 19 | 215 | 0.0 | 0.0 | 0.00 | 0.05 | 0.05 | 97 | 1017.7 |
| 20260901014504 | 19 | 215 | 0.0 | 0.0 | 0.00 | 0.23 | 0.05 | 97 | 1017.7 |
| 20260901013009 | 19 | 215 | 0.0 | 0.0 | 0.00 | 0.23 | 0.05 | 96 | 1017.7 |
| 20260901011503 | 20 | 215 | 0.0 | 0.0 | 0.00 | 0.23 | 0.05 | 96 | 1017.7 |
| 20260901010003 | 20 | 215 | 0.0 | 0.0 | 0.00 | 0.23 | 0.05 | 96 | 1017.7 |
| 20260901004503 | 20 | 215 | 0.0 | 0.0 | 0.00 | 0.28 | 0.05 | 95 | 1017.7 |
| 20260901003002 | 20 | 215 | 0.0 | 0.0 | 0.00 | 0.28 | 0.05 | 95 | 1017.6 |
| 20260901001502 | 20 | 215 | 0.0 | 0.0 | 0.00 | 0.28 | 0.05 | 95 | 1017.4 |
| 20260901000001 | 21 | 215 | 0.0 | 0.0 | 0.00 | 0.28 | 0.05 | 94 | 1017.3 |
| 20260831234502 | 21 | 215 | 0.0 | 0.0 | 0.00 | 0.28 | 0.05 | 93 | 1017.2 |
| 20260831233102 | 21 | 215 | 0.0 | 0.0 | 0.00 | 0.28 | 0.05 | 92 | 1017.2 |
| 20260831231559 | 22 | 215 | 0.0 | 0.0 | 0.00 | 0.28 | 0.05 | 91 | 1017.3 |
| 20260831230056 | 23 | 215 | 0.0 | 0.0 | 0.00 | 0.28 | 0.05 | 88 | 1017.5 |
| 20260831224554 | 24 | 215 | 0.0 | 0.0 | 0.00 | 0.28 | 0.05 | 86 | 1017.8 |
| 20260831223054 | 25 | 215 | 0.0 | 0.0 | 0.00 | 0.28 | 0.05 | 83 | 1017.8 |
| 20260831221614 | 25 | 215 | 0.0 | 0.0 | 0.00 | 0.28 | 0.05 | 83 | 1017.8 |
| 20260831220052 | 25 | 211 | 0.0 | 0.0 | 0.00 | 0.28 | 0.05 | 84 | 1017.8 |
| 20260831214549 | 24 | 211 | 0.0 | 1.6 | 0.00 | 0.28 | 0.05 | 81 | 1018.0 |
| 20260831213049 | 24 | 249 | 0.0 | 1.6 | 0.00 | 0.28 | 0.05 | 82 | 1018.1 |
| 20260831211547 | 24 | 256 | 0.0 | 0.0 | 0.00 | 0.28 | 0.05 | 81 | 1018.4 |
| 20260831210048 | 23 | 256 | 0.0 | 1.6 | 0.00 | 0.28 | 0.05 | 83 | 1018.5 |
| 20260831204545 | 23 | 219 | 0.0 | 1.6 | 0.00 | 0.28 | 0.05 | 91 | 1018.4 |
| 20260831203103 | 22 | 218 | 0.0 | 0.0 | 0.00 | 0.28 | 0.05 | 90 | 1018.5 |
| 20260831201550 | 23 | 218 | 0.0 | 0.0 | 0.00 | 0.28 | 0.05 | 92 | 1018.6 |
| 20260831200124 | 23 | 218 | 0.0 | 0.0 | 0.05 | 0.28 | 0.05 | 91 | 1018.8 |
| 20260831194542 | 23 | 219 | 0.0 | 0.0 | 0.05 | 0.28 | 0.05 | 90 | 1019.0 |
| 20260831193042 | 23 | 217 | 0.0 | 1.6 | 0.05 | 0.28 | 0.05 | 89 | 1019.1 |
| 20260831191544 | 23 | 138 | 0.0 | 1.6 | 0.05 | 0.28 | 0.05 | 84 | 1019.0 |